Weather History for KSWO - January, 2014

Change the Weather History Date:

Friday, January 3, 2014

  Actual Average Record
Temperature  
Mean Temperature 36 °F -  
Max Temperature 51 °F 46 °F 79 °F (2006)
Min Temperature 21 °F 25 °F 3 °F (2002)
Degree Days  
Heating Degree Days 29    
Moisture  
Dew Point 18 °F    
Average Humidity 52    
Maximum Humidity 74    
Minimum Humidity 27    
Precipitation  
Precipitation 0.00 in - - ()
Sea Level Pressure  
Sea Level Pressure 30.14 in    
Wind  
Wind Speed 13 mph (SSE)    
Max Wind Speed 23 mph    
Max Gust Speed 34 mph    
Visibility 10 miles    
Events      
Averages and records for this station are not official NWS values.
T = Trace of Precipitation, MM = Missing Value Source: NWS Daily Summary

Daily Weather History Graph

Daily Weather History Graph

Search for Another Location

Airport or City:

Trip Planner

Search our weather history database for the weather conditions in past years. The results will help you decide how hot, cold, wet, or windy it might be!

Date:

Astronomy

Jan. 03, 2014 Rise Set
Actual Time 7:39 AM CST 5:26 PM CST
Civil Twilight 7:11 AM CST 5:54 PM CST
Nautical Twilight 6:39 AM CST 6:26 PM CST
Astronomical Twilight 6:08 AM CST 6:58 PM CST
Moon 9:11 AM CST (1/3) 8:30 PM CST (1/3)
Length of Visible Light 10h 43m
Length of Day
9h 46m
Waxing Crescent, 8% of the Moon is Illuminated
Jan 3
Waxing Crescent
Jan 7
First Quarter
Jan 15
Full
Jan 23
Last Quarter
Jan 30
New

Hourly Weather History & Observations

Time (CST) Temp. Windchill Dew Point Humidity Pressure Visibility Wind Dir Wind Speed Gust Speed Precip Events Conditions
12:53 AM 21.9 °F 11.0 °F 14.0 °F 72% 30.43 in 10.0 mi SSE 10.4 mph - N/A   Clear
1:53 AM 21.9 °F 11.7 °F 14.0 °F 72% 30.42 in 10.0 mi SE 9.2 mph - N/A   Clear
2:53 AM 21.9 °F 12.5 °F 14.0 °F 72% 30.42 in 10.0 mi SSE 8.1 mph - N/A   Clear
3:53 AM 21.9 °F 12.5 °F 14.0 °F 72% 30.40 in 10.0 mi SSE 8.1 mph - N/A   Clear
4:53 AM 21.0 °F 11.4 °F 14.0 °F 74% 30.39 in 10.0 mi SSE 8.1 mph - N/A   Clear
5:53 AM 21.9 °F 10.4 °F 14.0 °F 72% 30.36 in 10.0 mi SSE 11.5 mph - N/A   Clear
6:53 AM 21.9 °F 11.7 °F 14.0 °F 72% 30.34 in 10.0 mi SSE 9.2 mph - N/A   Clear
7:53 AM 21.0 °F 9.9 °F 14.0 °F 74% 30.32 in 10.0 mi SSE 10.4 mph - N/A   Clear
8:53 AM 27.0 °F 16.7 °F 17.1 °F 66% 30.30 in 10.0 mi South 11.5 mph - N/A   Clear
9:53 AM 33.1 °F 22.2 °F 19.0 °F 56% 30.27 in 10.0 mi South 17.3 mph 25.3 mph N/A   Clear
10:53 AM 39.9 °F 30.0 °F 19.9 °F 45% 30.24 in 10.0 mi South 21.9 mph 28.8 mph N/A   Clear
11:53 AM 45.0 °F 37.6 °F 21.0 °F 39% 30.17 in 10.0 mi South 17.3 mph 27.6 mph N/A   Clear
12:53 PM 48.9 °F - 18.0 °F 29% 30.09 in 10.0 mi South 20.7 mph 34.5 mph N/A   Clear
1:53 PM 51.1 °F - 18.0 °F 27% 30.04 in 10.0 mi South 16.1 mph 32.2 mph N/A   Clear
2:53 PM 48.0 °F - 19.9 °F 33% 29.99 in 10.0 mi South 18.4 mph 33.4 mph N/A   Clear
3:53 PM 50.0 °F - 19.9 °F 31% 29.96 in 10.0 mi South 23.0 mph 34.5 mph N/A   Clear
4:53 PM 46.9 °F - 19.9 °F 34% 29.94 in 10.0 mi South 19.6 mph 27.6 mph N/A   Clear
5:53 PM 43.0 °F 35.1 °F 19.9 °F 40% 29.93 in 10.0 mi South 17.3 mph 25.3 mph N/A   Clear
6:53 PM 42.1 °F 33.1 °F 19.9 °F 41% 29.92 in 10.0 mi South 20.7 mph 26.5 mph N/A   Clear
7:53 PM 41.0 °F 32.8 °F 21.0 °F 45% 29.90 in 10.0 mi South 16.1 mph 27.6 mph N/A   Clear
8:53 PM 41.0 °F 31.6 °F 21.0 °F 45% 29.89 in 10.0 mi South 20.7 mph 25.3 mph N/A   Clear
9:53 PM 41.0 °F 31.6 °F 21.0 °F 45% 29.88 in 10.0 mi South 20.7 mph 26.5 mph N/A   Clear
10:53 PM 41.0 °F 32.2 °F 21.0 °F 45% 29.85 in 10.0 mi South 18.4 mph 27.6 mph N/A   Clear
11:53 PM 41.0 °F 32.2 °F 21.0 °F 45% 29.83 in 10.0 mi South 18.4 mph 31.1 mph N/A   Clear